Location: Berlin
(52.5170°N, 13.4000°E)
Time: 10:06:02
(UTC+02:00)

ISS - Pass Details

Date: 14 July 2018
Orbit: 402 x 408 km, 51.6° (Epoch: 19 July)

Event Time Altitude Azimuth Distance (km) Brightness Sun altitude
Exits shadow 02:40:19 20° 238° (WSW) 998 -2.3 -13.3°
Maximum altitude 02:42:21 57° 165° (SSE) 486 -3.8 -13.2°
Drops below altitude 10° 02:45:36 10° 85° (E) 1,474 -0.6 -13.0°
Sets 02:47:43 0° 82° (E) 2,337 0.5 -12.9°
